Regional Weather Roundup
Issued by NWS

Home | Current Version | Previous Version | Graphics & Text | Print | Product List | Glossary On
Versions: 1 2 3 4 5 6 7 8 9 10 11 12 13 14 15 16 17 18 19 20 21 22 23 24 25 26 27 28 29 30 31 32 33 34 35 36 37 38 39 40 41 42 43 44 45 46 47 48 49 50
000
ASUS43 KDTX 141210
RWRMI
MICHIGAN HOURLY REGIONAL WEATHER ROUNDUP
NATIONAL WEATHER SERVICE DETROIT/PONTIAC MI
800 AM EDT MON JUL 14 2014

NOTE: "FAIR" INDICATES FEW OR NO CLOUDS BELOW 12,000 FEET WITH NO
SIGNIFICANT WEATHER AND/OR OBSTRUCTION TO VISIBILITY.

MIZ047>049-052>055-059>063-066>070-074>076-081>083-141300-
SOUTHEAST LOWER MICHIGAN

CITY           SKY/WX    TMP DP  RH WIND       PRES   REMARKS
ADRIAN         CLOUDY    66  62  87 CALM      29.88S
6HR MIN TEMP:  64; 6HR MAX TEMP:  68;

ALMA           SUNNY     63  62  96 CALM      29.86S
ANN ARBOR      CLOUDY    66  63  90 S3        29.87R
BAD AXE        PTSUNNY   63  58  84 SE6       29.87S
6HR MIN TEMP:  59; 6HR MAX TEMP:  63;

CARO           PTSUNNY   65  63  93 SE5       29.85S
DETROIT CITY   PTSUNNY   70  64  81 S3        29.86S
6HR MIN TEMP:  68; 6HR MAX TEMP:  73; 6HR PCP:  0.15;

DETROIT        CLOUDY    67  65  93 SE3       29.87S FOG
6HR MIN TEMP:  66; 6HR MAX TEMP:  69; 6HR PCP:  0.16;

FLINT          MOSUNNY   68  63  84 S3        29.85S
6HR MIN TEMP:  63; 6HR MAX TEMP:  69;

GROSSE ILE     CLOUDY    70  64  83 CALM      29.86R
HILLSDALE      CLOUDY    68  67  99 CALM      29.89S
6HR MIN TEMP:  64; 6HR MAX TEMP:  68;

HOWELL         MOSUNNY   64  64  97 SW3       29.86S

CITY           SKY/WX    TMP DP  RH WIND       PRES   REMARKS
JACKSON        PTSUNNY   66  64  93 VRB3      29.87S FOG
6HR MIN TEMP:  64; 6HR MAX TEMP:  66; 6HR PCP:  0.04;

LAMBERTVILLE   CLOUDY    68  63  83 CALM      29.87F
LANSING        SUNNY     66  62  87 W3        29.86S
6HR MIN TEMP:  62; 6HR MAX TEMP:  68;

LAPEER         FAIR      64  60  87 SE6       29.86S
MASON          MOSUNNY   64  63  96 CALM      29.86F
MONROE         CLOUDY    66  64  94 CALM      29.86S
MT. CLEMENS    PTSUNNY   67  66  96 SE6       29.85S
6HR MIN TEMP:  64; 6HR MAX TEMP:  68; 6HR PCP:  0.13;

PONTIAC        PTSUNNY   66  63  90 S6        29.86S
6HR MIN TEMP:  64; 6HR MAX TEMP:  69; 6HR PCP:  0.01;

PORT HOPE        N/A     64  56  75 VRB3      29.85S
6HR MIN TEMP:  59; 6HR MAX TEMP:  64;

PORT HURON     PTSUNNY   64  63  94 SE3       29.86F
TRI CITIES     SUNNY     64  58  80 CALM      29.86F
6HR MIN TEMP:  62; 6HR MAX TEMP:  66;

TROY           PTSUNNY   65  65  98 CALM      29.87S FOG
SAGINAW HB     SUNNY     63  61  94 CALM      29.84S
$$
MIZ043>046-050>051-056>058-064>065-071>073-077>080-141300-
SOUTHWEST LOWER MICHIGAN

CITY           SKY/WX    TMP DP  RH WIND       PRES   REMARKS
BATTLE CREEK   SUNNY     66  63  90 W3        29.88S
6HR MIN TEMP:  63; 6HR MAX TEMP:  68; 6HR PCP: TRACE;

BENTON HARBOR  SUNNY     63  62  97 CALM      29.86F FOG
6HR MIN TEMP:  58; 6HR MAX TEMP:  67;

BIG RAPIDS     SUNNY     56  56 100 NE7       29.86S
6HR MIN TEMP:  52; 6HR MAX TEMP:  59;

COLDWATER      PTSUNNY   68  66  95 CALM      29.88S
6HR MIN TEMP:  66; 6HR MAX TEMP:  71;

FREMONT        FOG       58  58 100 CALM      29.85S VSB 1
HOLLAND        SUNNY     65  60  84 CALM      29.87S
6HR MIN TEMP:  59; 6HR MAX TEMP:  68;

GRAND RAPIDS   MOSUNNY   65  63  93 CALM      29.86S FOG
6HR MIN TEMP:  61; 6HR MAX TEMP:  68;

IONIA          FAIR      65  63  94 NW3       29.85S
KALAMAZOO      SUNNY     65  63  93 CALM      29.87F
6HR MIN TEMP:  60; 6HR MAX TEMP:  69; 6HR PCP:  0.01;

LUDINGTON      SUNNY     57  56  97 CALM      29.84F
6HR MIN TEMP:  49; 6HR MAX TEMP:  57; 6HR PCP:  0.01;

MARSHALL       MOSUNNY   65  64  98 CALM      29.87S FOG
MOUNT PLEASANT SUNNY     60  60  97 CALM      29.85S
6HR MIN TEMP:  55; 6HR MAX TEMP:  63;

MUSKEGON       SUNNY     62  58  86 CALM      29.86S
6HR MIN TEMP:  56; 6HR MAX TEMP:  66;

SOUTH HAVEN    MOSUNNY   62  62 100 CALM      29.86F FOG
$$
MIZ016>042-141300-
NORTHERN LOWER MICHIGAN

CITY           SKY/WX    TMP DP  RH WIND       PRES   REMARKS
ALPENA         SUNNY     57  54  89 CALM      29.85S
6HR MIN TEMP:  47; 6HR MAX TEMP:  57;

BEAVER ISLAND  CLOUDY    61  56  85 SW7       29.81S
6HR MIN TEMP:  57; 6HR MAX TEMP:  61;

BELLAIRE       PTSUNNY   57  55  95 CALM      29.83S
6HR MIN TEMP:  47; 6HR MAX TEMP:  57;

CADILLAC       SUNNY     54  53  98 CALM      29.86S
CHARLEVOIX     SUNNY     63  56  77 S5        29.85R
6HR MIN TEMP:  55; 6HR MAX TEMP:  63;

FRANKFORT      SUNNY     58  55  89 CALM      29.84S
GAYLORD        MOSUNNY   58  53  84 SW8       29.85S
6HR MIN TEMP:  50; 6HR MAX TEMP:  58;

GRAYLING       SUNNY     53  52  97 CALM      29.86F
6HR MIN TEMP:  43; 6HR MAX TEMP:  53;

HARBOR SPRINGS CLOUDY    58  55  88 CALM      29.82S
HOUGHTON LAKE  SUNNY     61  59  93 S8        29.86F
6HR MIN TEMP:  46; 6HR MAX TEMP:  61;

MANISTEE       SUNNY     54  52  94 E3        29.85S
OSCODA         PTSUNNY   58  55  88 CALM      29.86R
PELLSTON       CLOUDY    57  53  86 SE5       29.82S
6HR MIN TEMP:  47; 6HR MAX TEMP:  57;

ROGERS CITY    SUNNY     60  57  89 S10       29.83F
TRAVERSE CITY  MOSUNNY   61  55  81 CALM      29.82S
6HR MIN TEMP:  57; 6HR MAX TEMP:  61;

$$
MIZ007>008-015-141300-
EASTERN UPPER MICHIGAN

CITY           SKY/WX    TMP DP  RH WIND       PRES   REMARKS
KINROSS        CLOUDY    57  54  88 CALM      29.80F
6HR MIN TEMP:  54; 6HR MAX TEMP:  57;

MACKINAC ISLAN MOSUNNY   59  52  77 S6        29.81S
6HR MIN TEMP:  57; 6HR MAX TEMP:  59;

NEWBERRY       CLOUDY    56  55  93 SW9       29.80S
S. S. MARIE    CLOUDY    54  49  83 NE5       29.80F
6HR MIN TEMP:  50; 6HR MAX TEMP:  55;

MUNISING         N/A     60  50  69 NE8       29.81R
6HR MIN TEMP:  55; 6HR MAX TEMP:  61; 6HR PCP:  0.01;

$$
MIZ004>006-011>014-085-141300-
CENTRAL UPPER MICHIGAN

CITY           SKY/WX    TMP DP  RH WIND       PRES   REMARKS
MANISTIQUE     MOSUNNY   59  56  91 CALM      29.80F
6HR MIN TEMP:  54; 6HR MAX TEMP:  59;

ESCANABA       CLOUDY    55  50  82 W3        29.82R
6HR MIN TEMP:  54; 6HR MAX TEMP:  57;

MENOMINEE      CLOUDY    57  50  77 CALM      29.82R
6HR MIN TEMP:  54; 6HR MAX TEMP:  61;

SAWYER-GWINN   SUNNY     54  50  87 CALM      29.82R
$$
MIZ001>003-009>011-084-141300-
WESTERN UPPER MICHIGAN

CITY           SKY/WX    TMP DP  RH WIND       PRES   REMARKS
IRON MOUNTAIN  CLOUDY    56  51  84 SW3       29.81S
6HR MIN TEMP:  52; 6HR MAX TEMP:  57; 6HR PCP: TRACE;

HOUGHTON       MOSUNNY   53  49  86 W9        29.80S
6HR MIN TEMP:  50; 6HR MAX TEMP:  55;

COPPER HARBOR    N/A     57  50  77 NW3       29.78F
6HR MIN TEMP:  53; 6HR MAX TEMP:  59;

IRONWOOD       CLOUDY    54  46  76 SW3       29.80S
6HR MIN TEMP:  48; 6HR MAX TEMP:  55;

$$

ABBREVIATIONS USED IN REMARKS
   TC - TEMPERATURE IN CELSIUS
  WCI - WIND CHILL INDEX
   HX - HEAT INDEX
  VSB - VISIBILITY




USA.gov is the U.S. government's official web portal to all federal, state and local government web resources and services.